This is the latest recevied weather packets stored in our database for station/object KK7RJD. If no packets are shown the sender has not sent any weather packets the latest 10 day(s).
| Time | Temp. | Humidity | Pressure | Rain* | Wind** | Luminosity | Snow |
|---|---|---|---|---|---|---|---|
| 1778013161 | 7.78° C | 42% | 1014.8 hPa | 0 mm | - | 289 W/m² | - |
| 1778012857 | 7.78° C | 40% | 1015 hPa | 0 mm | - | 335 W/m² | - |
| 1778012553 | 7.78° C | 42% | 1015 hPa | 0 mm | - | 273 W/m² | - |
| 1778012249 | 7.22° C | 43% | 1014.8 hPa | 0 mm | - | 202 W/m² | - |
| 1778011948 | 7.78° C | 43% | 1015.1 hPa | 0 mm | - | 308 W/m² | - |
| 1778011646 | 7.22° C | 41% | 1015.1 hPa | 0 mm | - | 431 W/m² | - |
| 1778011342 | 7.22° C | 41% | 1015.1 hPa | 0 mm | - | 385 W/m² | - |
| 1778011038 | 7.78° C | 43% | 1015.3 hPa | 0 mm | - | 494 W/m² | - |
| 1778010735 | 7.78° C | 44% | 1015.2 hPa | 0 mm | - | 1103 W/m² | - |
| 1778010433 | 7.78° C | 43% | 1015.3 hPa | 0 mm | - | 358 W/m² | - |
| 1778010129 | 7.78° C | 44% | 1015.1 hPa | 0 mm | - | 1155 W/m² | - |
| 1778009825 | 7.78° C | 43% | 1015.1 hPa | 0 mm | - | 1156 W/m² | - |
| 1778009522 | 7.22° C | 42% | 1015.2 hPa | 0 mm | - | 845 W/m² | - |
| 1778009221 | 7.78° C | 44% | 1015.2 hPa | 0 mm | - | 290 W/m² | - |
| 1778008918 | 7.78° C | 44% | 1015.1 hPa | 0 mm | - | 446 W/m² | - |
| 1778008616 | 7.78° C | 44% | 1015.2 hPa | 0 mm | - | 464 W/m² | - |
| 1778008314 | 7.22° C | 46% | 1015.4 hPa | 0 mm | - | 487 W/m² | - |
| 1778008010 | 8.33° C | 42% | 1015.2 hPa | 0 mm | - | 297 W/m² | - |
| 1778007709 | 8.33° C | 43% | 1015.1 hPa | 0 mm | - | 1076 W/m² | - |
| 1778007407 | 8.33° C | 43% | 1015.3 hPa | 0 mm | - | 1003 W/m² | - |
| 1778007103 | 7.78° C | 45% | 1015.4 hPa | 0 mm | - | 1033 W/m² | - |
| 1778006800 | 7.22° C | 44% | 1015.4 hPa | 0 mm | - | 1006 W/m² | - |
| 1778006496 | 7.78° C | 43% | 1015.6 hPa | 0 mm | - | 1064 W/m² | - |
| 1778006193 | 7.78° C | 45% | 1015.4 hPa | 0 mm | - | 1031 W/m² | - |
| 1778005891 | 7.78° C | 47% | 1015.7 hPa | 0 mm | - | 963 W/m² | - |
* Rain latest hour (hover to see other rain measurements)
** Current wind speed in m/s (hover to see current wind gust speed)